Location: Carite
(10.3909°N, 67.0102°W)
Time: 04:12:38
(UTC+00:00)

Meteor 2-4 Rocket - Pass Details

Date: 08 September 2024
Orbit: 798 x 907 km, 81.2° (Epoch: 09 October)

Event Time Altitude Azimuth Distance (km) Brightness Sun altitude
Rises 23:29:24 0° 11° (N) 3,515 6.9 -14.7°
Reaches altitude 10° 23:32:08 10° 20° (NNE) 2,566 6.1 -15.4°
Maximum altitude 23:37:19 33° 83° (E) 1,454 4.4 -16.6°
Enters shadow 23:39:41 24° 124° (ESE) 1,738 4.8 -17.2°
